Location: Avully
(45.9633°N, 6.0228°E)
Time: 18:55:48
(UTC+00:00)

Cosmos 1862 Rocket - Pass Details

Date: 23 May 2024
Orbit: 601 x 629 km, 82.5° (Epoch: 16 June)

Event Time Altitude Azimuth Distance (km) Brightness Sun altitude
Exits shadow 01:04:16 34° 260° (W) 996 4.3 -20.2°
Maximum altitude 01:05:02 37° 285° (WNW) 943 4.4 -20.2°
Drops below altitude 10° 01:09:04 10° 354° (N) 1,964 7.0 -19.9°
Sets 01:11:27 0° 2° (N) 2,876 8.2 -19.7°
